Location: *
(35.2600°S, 174.0808°E)
Time: 23:29:07
(UTC+00:00)

Daily predictions for brighter satellites

Satellite Brightness Start Highest point End
(mag) Time Altitude Azimuth Time Altitude Azimuth Time Altitude Azimuth
CZ-4C R/B 4.2 14:49:57 34° ENE 14:49:57 34° ENE 14:56:29 10° SE
USA 234 4.4 15:16:19 10° ESE 15:22:04 32° NE 15:22:49 31° NE
Cosmos 1697 Rocket 4.4 15:28:16 10° S 15:33:14 31° ESE 15:38:11 10° ENE
SL-16 R/B 3.6 15:34:26 10° S 15:37:54 33° SSW 15:37:54 33° SSW
Milstar 3 Cent rocket 3.7 15:49:14 24° NE 15:49:14 24° NE 15:51:17 10° NE
Cosmos 2369 4.5 15:47:31 10° S 15:53:07 51° ESE 15:58:39 10° NE
SJ 16-02 2.8 15:55:40 32° SSE 15:55:40 32° SSE 15:58:04 10° SSE
Okean 1-7 3.8 15:56:26 10° S 16:00:34 51° ESE 16:00:34 51° ESE
Cosmos 2082 Rocket 2.1 16:02:35 88° SW 16:02:35 88° SW 16:08:16 10° SSE
Cosmos 990 Rocket 4.5 16:10:12 47° SSW 16:10:12 47° SSW 16:14:19 10° S
Cosmos 1980 Rocket 3.8 16:05:02 10° S 16:10:10 34° ESE 16:15:12 10° NE
Cosmos 2180 Rocket 4.5 16:10:59 58° WSW 16:10:59 58° WSW 16:16:45 10° S
Cosmos 158 Rocket 4.4 16:07:51 10° S 16:12:44 59° ESE 16:17:38 10° NNE
Cosmos 2298 Rocket 4.5 16:16:12 26° N 16:19:09 60° ENE 16:24:25 10° SSE
USA 229 DEB 3.5 16:14:58 10° SSW 16:21:50 88° WNW 16:28:23 10° NNE
USA 229 3.5 16:15:02 10° SSW 16:21:54 89° WNW 16:28:28 10° NNE
SL-24 DEB 4.1 16:20:33 10° S 16:25:13 71° W 16:25:13 71° W
Cosmos 1867 3.8 16:20:08 10° SSW 16:25:33 69° ESE 16:30:56 10° NE
NOSS 3-1 (A) 3.9 16:21:16 10° SSW 16:27:21 55° SE 16:32:39 10° NE
SL-27 R/B 2.8 16:31:01 56° SE 16:31:01 56° SE 16:33:49 10° SSE
CZ-3B R/B 3.6 16:25:38 30° WNW 16:32:20 63° SW 16:36:34 10° SSE
PSLV R/B 3.7 16:28:42 10° NNE 16:32:28 82° ESE 16:36:15 10° S
Meteor PRIRODA 3.5 16:34:42 43° N 16:35:52 82° WNW 16:39:42 10° SSW
Cosmos 2278 3.6 16:31:22 10° SSW 16:37:08 90° E 16:42:48 10° NNE
CZ-2C R/B 2.7 16:36:00 40° NW 16:37:13 48° W 16:42:17 10° SSW
CZ-4C R/B 3.1 16:35:11 35° WNW 16:38:23 53° SW 16:45:27 10° SSE
Helios 1A Rocket 3.5 16:34:35 10° NNE 16:38:41 59° ESE 16:42:51 10° S
Meteor 1-20 Rocket 4.4 16:37:33 36° NW 16:39:36 54° W 16:45:21 10° S
Cosmos 1833 Rocket 3.7 16:42:45 27° WSW 16:42:46 27° WSW 16:47:34 10° S
Milstar 3 3.6 16:41:04 28° NW 16:42:52 32° NNW 16:48:50 10° NE
Meteor 1-28 Rocket 3.0 16:39:06 10° S 16:42:52 80° WSW 16:43:57 45° NNW
Gblst 52 Del rocket 4.2 16:39:55 24° WSW 16:43:45 69° NW 16:49:22 10° NE
Cosmos 1656 4.5 16:45:36 30° NW 16:45:36 30° NW 16:49:14 10° NNW
SJ-12 4.5 16:42:17 10° NNE 16:46:19 59° ESE 16:50:26 10° S
Meteor 1-18 Rocket 4.1 16:47:10 10° SSW 16:52:50 75° W 16:58:22 10° N
Cosmos 2360 4.1 16:48:43 10° SSW 16:54:30 84° WNW 17:00:12 10° NNE
Cosmos 1689 Rocket 3.5 16:51:58 10° S 16:53:47 27° SSW 16:53:47 27° SSW
Cosmos 1937 Rocket 4.4 16:55:51 26° WSW 16:56:16 27° WSW 17:00:40 10° S
MOS 1-B 4.4 16:51:51 10° N 16:57:35 58° WNW 17:03:23 10° SSW
CZ-4B R/B 3.6 16:55:45 10° SSW 16:56:33 14° SSW 16:56:33 14° SSW
PAYLOAD B 4.1 16:53:00 10° N 16:58:36 79° WNW 17:04:13 10° SSW
FENGYUN 3A 4.2 16:55:03 10° NNE 17:00:25 62° ESE 17:05:51 10° S
SL-8 R/B 3.9 16:57:24 22° NW 17:00:28 69° NE 17:05:19 10° ESE
NOSS 3-1 (C) 3.4 16:54:53 10° SW 17:00:39 49° WNW 17:05:47 10° N
Cosmos 1484 Rocket 2.6 16:59:11 10° N 17:02:54 64° W 17:06:45 10° SSW
USA 234 3.4 16:58:44 10° SE 17:05:13 62° SW 17:10:12 18° WNW
Cosmos 1733 Rocket 3.0 17:03:43 10° N 17:08:09 78° W 17:12:36 10° S
Lacrosse 4 Rocket 4.4 17:05:24 10° S 17:08:31 18° SE 17:11:37 10° E
Meteor 2-4 Rocket 4.2 17:03:13 10° S 17:08:59 66° E 17:14:31 10° NNE
Okean 3 3.3 17:08:15 10° S 17:12:32 82° W 17:16:43 10° N
GPS 2-05 Rocket1 2.3 17:11:28 34° W 17:12:35 82° S 17:15:32 10° E
Okean O Rocket 1.5 17:08:35 10° N 17:13:01 75° WNW 17:17:30 10° SSW
Nadezhda 2 Rocket 4.4 17:06:45 10° S 17:13:03 84° W 17:19:12 10° N
Cosmos 1553 Rocket 4.3 17:07:23 10° N 17:13:25 71° E 17:19:32 10° S
METEOR-M 4.1 17:09:02 10° NNE 17:14:24 88° W 17:19:50 10° SSW
NOSS 2-3 (C) 4.2 17:10:01 10° SSW 17:16:25 86° ESE 17:21:23 10° NNE
Cosmos 2221 Rocket 3.9 17:12:46 10° SSW 17:17:05 44° W 17:21:19 10° NNW
Cosmos 1697 Rocket 3.3 17:12:09 10° SW 17:17:07 32° WNW 17:22:02 10° NNW
Cosmos 1500 3.4 17:13:52 10° N 17:17:41 74° E 17:21:36 10° S
Cosmos 1125 Rocket 3.5 17:13:24 10° NNW 17:18:39 85° WSW 17:23:57 10° SSE
Cosmos 2322 Rocket 4.1 17:13:31 10° S 17:18:40 33° ESE 17:23:46 10° NE
Cosmos 372 Rocket 4.3 17:16:19 10° NW 17:21:10 43° WSW 17:26:04 10° S
Cosmos 1674 Rocket 3.9 17:20:15 10° S 17:24:46 74° E 17:29:11 10° NNE
Okean 1 4.4 17:26:44 10° SW 17:29:57 23° W 17:33:07 10° NW
FALCON 9 R/B 2.9 17:27:48 12° WNW 17:31:34 65° NNE 17:44:32 10° E
CZ-4B R/B 3.5 17:34:16 10° N 17:39:18 43° W 17:44:24 10° SSW
Meteor 1-5 Rocket 4.4 17:33:32 10° NNW 17:39:23 64° W 17:45:23 10° S
ALOS 2.5 17:36:11 10° N 17:40:42 48° W 17:45:18 10° SSW
Cosmos 2082 Rocket 4.0 17:45:24 10° WSW 17:47:26 12° SW 17:49:28 10° SSW
Cosmos 2360 Rocket 4.4 17:43:48 10° S 17:48:39 28° ESE 17:53:27 10° ENE
Cosmos 1980 Rocket 3.0 17:49:13 10° SW 17:53:59 29° WNW 17:58:42 10° NNW
S3M 4.1 17:49:08 10° NNW 17:55:28 68° W 18:01:55 10° S
